Overview Statistics Trail Chart Weather Telemetry Raw packets
 

This is the latest recevied weather packets stored in our database for station/object KC1BRV. If no packets are shown the sender has not sent any weather packets the latest 10 day(s).

<< 83 84 85 86 87 88 89 >>
Time Temp. Humidity Pressure Rain* Wind** Luminosity Snow
1788007123 17.78° C 70% 1023.4 hPa 0 mm - 33 W/m² -
1788006823 17.78° C 70% 1023.3 hPa 0 mm - 42 W/m² -
1788006523 17.78° C 71% 1023.3 hPa 0 mm - 31 W/m² -
1788006217 17.78° C 73% 1023.3 hPa 0 mm - 31 W/m² -
1788005916 17.78° C 73% 1023.2 hPa 0 mm - 32 W/m² -
1788005611 17.22° C 76% 1023.4 hPa 0 mm - 29 W/m² -
1788005311 17.22° C 76% 1023.4 hPa 0 mm - 30 W/m² -
1788005010 16.67° C 78% 1023.3 hPa 0 mm - 34 W/m² -
1788004708 16.67° C 77% 1023.1 hPa 0 mm - 27 W/m² -
1788004403 16.67° C 77% 1023 hPa 0 mm - 26 W/m² -
1788004098 16.67° C 76% 1023 hPa 0 mm - 26 W/m² -
1788003797 16.11° C 77% 1023.1 hPa 0 mm - 25 W/m² -
1788003492 16.11° C 77% 1023 hPa 0 mm - 25 W/m² -
1788003192 16.11° C 78% 1022.9 hPa 0 mm - 24 W/m² -
1788002886 16.11° C 77% 1023 hPa 0 mm - 24 W/m² -
1788002582 16.11° C 76% 1022.9 hPa 0 mm - 22 W/m² -
1788002277 16.11° C 77% 1022.9 hPa 0 mm - 21 W/m² -
1788001976 16.11° C 76% 1022.8 hPa 0 mm - 20 W/m² -
1788001672 16.11° C 75% 1022.6 hPa 0 mm - 19 W/m² -
1788001371 16.11° C 75% 1022.6 hPa 0 mm - 17 W/m² -
1788001066 16.11° C 74% 1022.8 hPa 0 mm - 15 W/m² -
1788000762 16.11° C 74% 1022.6 hPa 0 mm - 12 W/m² -
1788000457 16.11° C 73% 1022.6 hPa 0 mm - 14 W/m² -
1788000157 16.11° C 74% 1022.3 hPa 0 mm - 14 W/m² -
1787999853 16.11° C 74% 1022.4 hPa 0 mm - 12 W/m² -

* Rain latest hour (hover to see other rain measurements)
** Current wind speed in m/s (hover to see current wind gust speed)